Find Starlink 30517

NORAD ID: 57995 Int'l Des: 2023-153 Owner: SPXS Country: US Constellation: starlink operational
LEOCIRCULAR

リアルタイム位置

3D地球を読み込み中...

Starlink 30517について

説明を読み込み中...

次回通過

Passes for default location (London). Set your location on the main map for personalized predictions.

高度履歴

Loading altitude history...

軌道要素

1 57995U 23153E 26123.68101150 .00006094 00000-0 23078-3 0 9997
2 57995 43.0017 116.7407 0001284 265.5881 94.4824 15.27580546143303
Epoch: May 3, 2026 • Age: 8 hours

現在のステータス

高度 483.3 km
速度 7.63 km/s
衛星直下点 23.97°N, 32.27°E
打ち上げ日 Oct 5, 2023
運用期間 2.5 years
タイプ internet

技術仕様

分類 Payload
質量 730.00 kg
乾燥質量 700.00 kg
総質量 730.00 kg
長さ 0.30 m
直径 4.10 m
スパン 29.00 m
形状 Box + pan
製造者 SPXS
バスタイプ Starlink V2M
フェーズステータス In Orbit
所有者/国 SPXS/US

Most Searched